Location: Epalinges
(46.5518°N, 6.6683°E)
Time: 19:32:11
(UTC+00:00)

Cosmos 2221 - Pass Details

Date: 20 June 2021
Orbit: 591 x 616 km, 82.5° (Epoch: 31 July)

Event Time Altitude Azimuth Distance (km) Brightness Sun altitude
Rises 01:57:55 0° 335° (NNW) 2,860 6.4 -12.9°
Reaches altitude 10° 02:00:47 10° 315° (NW) 1,946 5.3 -12.6°
Maximum altitude 02:03:31 17° 275° (W) 1,539 4.3 -12.4°
Enters shadow 02:05:14 14° 247° (WSW) 1,701 4.3 -12.2°
